• In India
  • List of Countries
  • For 7 days
  • Water Temperature
  • Satellite Maps
  • Weather Map
  • Weather Widgets
  • user-avatar
    Login

    Hourly Weather Eisenstadt

    Today, 21 October, Sunday

    Time Temperature Precipitation Wind Pressure Humidity
    00:00 +10°C° 0.1 mm 4 mps 729 mmHg 72%
    01:00 +8°C° 0.1 mm 4 mps 728 mmHg 72%
    02:00 +7°C° 0.1 mm 4 mps 728 mmHg 73%
    03:00 +6°C° 0.1 mm 4 mps 728 mmHg 74%
    04:00 +6°C° 0.1 mm 4 mps 728 mmHg 75%
    05:00 +5°C° 0 mm 4 mps 728 mmHg 75%
    06:00 +5°C° 0 mm 4 mps 728 mmHg 75%
    07:00 +5°C° 0 mm 4 mps 728 mmHg 74%
    08:00 +6°C° 0.1 mm 4 mps 728 mmHg 70%
    09:00 +7°C° 0.1 mm 5 mps 729 mmHg 66%
    10:00 +8°C° 0.1 mm 6 mps 729 mmHg 62%
    11:00 +9°C° 0.1 mm 6 mps 729 mmHg 59%
    12:00 +10°C° 0.1 mm 5 mps 729 mmHg 56%
    13:00 +10°C° 0.1 mm 5 mps 728 mmHg 53%
    14:00 +10°C° 0 mm 5 mps 728 mmHg 54%
    15:00 +10°C° 0 mm 5 mps 728 mmHg 56%
    16:00 +9°C° 0 mm 5 mps 728 mmHg 57%
    17:00 +8°C° 0 mm 4 mps 728 mmHg 61%
    18:00 +7°C° 0 mm 4 mps 728 mmHg 66%
    19:00 +6°C° 0 mm 4 mps 729 mmHg 70%
    20:00 +6°C° 0 mm 4 mps 729 mmHg 71%
    21:00 +6°C° 0 mm 4 mps 729 mmHg 72%
    22:00 +7°C° 0 mm 3 mps 729 mmHg 74%
    23:00 +7°C° 0 mm 3 mps 729 mmHg 75%

    Tomorrow, 22 October, Monday

    Time Temperature Precipitation Wind Pressure Humidity
    00:00 +7°C° 0 mm 3 mps 729 mmHg 76%
    01:00 +5°C° 0 mm 3 mps 729 mmHg 78%
    02:00 +5°C° 0 mm 3 mps 729 mmHg 79%
    03:00 +5°C° 0 mm 3 mps 728 mmHg 80%
    04:00 +5°C° 0 mm 3 mps 728 mmHg 81%
    05:00 +5°C° 0 mm 3 mps 728 mmHg 81%
    06:00 +6°C° 0 mm 2 mps 728 mmHg 81%
    07:00 +6°C° 0 mm 2 mps 728 mmHg 81%
    08:00 +7°C° 0 mm 2 mps 729 mmHg 74%
    09:00 +9°C° 0 mm 2 mps 729 mmHg 67%
    10:00 +12°C° 0 mm 2 mps 729 mmHg 60%
    11:00 +13°C° 0 mm 2 mps 728 mmHg 57%
    12:00 +13°C° 0 mm 3 mps 728 mmHg 54%
    13:00 +14°C° 0 mm 3 mps 728 mmHg 51%
    14:00 +14°C° 0 mm 2 mps 728 mmHg 53%
    15:00 +14°C° 0 mm 2 mps 727 mmHg 55%
    16:00 +13°C° 0 mm 2 mps 727 mmHg 57%
    17:00 +12°C° 0 mm 2 mps 728 mmHg 62%
    18:00 +10°C° 0 mm 2 mps 728 mmHg 67%
    19:00 +8°C° 0 mm 2 mps 728 mmHg 71%
    20:00 +8°C° 0 mm 2 mps 728 mmHg 73%
    21:00 +8°C° 0 mm 2 mps 729 mmHg 74%
    22:00 +7°C° 0 mm 3 mps 729 mmHg 75%
    23:00 +7°C° 0 mm 3 mps 729 mmHg 75%

    Day after tomorrow, 23 October, Tuesday

    Time Temperature Precipitation Wind Pressure Humidity
    00:00 +7°C° 0 mm 3 mps 729 mmHg 75%
    01:00 +7°C° 0 mm 3 mps 729 mmHg 75%
    02:00 +7°C° 0 mm 3 mps 728 mmHg 76%
    03:00 +7°C° 0 mm 4 mps 728 mmHg 77%
    04:00 +7°C° 0 mm 4 mps 728 mmHg 78%
    05:00 +7°C° 0 mm 4 mps 728 mmHg 79%
    06:00 +6°C° 0 mm 4 mps 728 mmHg 80%
    07:00 +7°C° 0 mm 3 mps 728 mmHg 81%
    08:00 +8°C° 0 mm 4 mps 728 mmHg 74%
    09:00 +10°C° 0 mm 4 mps 728 mmHg 68%
    10:00 +11°C° 0 mm 4 mps 728 mmHg 61%
    11:00 +12°C° 0 mm 5 mps 728 mmHg 58%
    12:00 +12°C° 0 mm 5 mps 727 mmHg 56%
    13:00 +13°C° 0 mm 5 mps 727 mmHg 53%
    14:00 +13°C° 0 mm 4 mps 726 mmHg 55%
    15:00 +12°C° 0 mm 4 mps 725 mmHg 56%
    16:00 +12°C° 0 mm 3 mps 725 mmHg 58%
    17:00 +11°C° 0 mm 3 mps 725 mmHg 61%
    18:00 +10°C° 0 mm 3 mps 724 mmHg 64%
    19:00 +10°C° 0 mm 3 mps 724 mmHg 67%
    20:00 +10°C° 0.1 mm 4 mps 724 mmHg 68%
    21:00 +8°C° 0.1 mm 4 mps 723 mmHg 69%
    22:00 +8°C° 0.1 mm 4 mps 723 mmHg 70%
    23:00 +8°C° 0 mm 4 mps 722 mmHg 70%

    24 October, Wednesday

    Time Temperature Precipitation Wind Pressure Humidity
    00:00 +8°C° 0 mm 5 mps 722 mmHg 70%
    01:00 +8°C° 0 mm 5 mps 721 mmHg 71%
    02:00 +8°C° 0 mm 5 mps 721 mmHg 70%
    03:00 +8°C° 0 mm 5 mps 720 mmHg 70%
    04:00 +8°C° 0 mm 6 mps 719 mmHg 70%
    05:00 +8°C° 0 mm 6 mps 719 mmHg 68%
    06:00 +9°C° 0 mm 7 mps 719 mmHg 67%
    07:00 +9°C° 0 mm 8 mps 718 mmHg 66%
    08:00 +10°C° 0.5 mm 8 mps 719 mmHg 65%
    09:00 +11°C° 0.5 mm 9 mps 719 mmHg 64%
    10:00 +12°C° 0.5 mm 10 mps 719 mmHg 63%
    11:00 +11°C° 0.8 mm 9 mps 719 mmHg 64%
    12:00 +11°C° 0.8 mm 8 mps 719 mmHg 66%
    13:00 +11°C° 0.8 mm 8 mps 719 mmHg 67%
    14:00 +10°C° 0.5 mm 7 mps 720 mmHg 67%
    15:00 +10°C° 0.5 mm 7 mps 720 mmHg 66%
    16:00 +10°C° 0.5 mm 6 mps 720 mmHg 66%
    17:00 +9°C° 0.3 mm 6 mps 721 mmHg 66%
    18:00 +8°C° 0.3 mm 6 mps 721 mmHg 67%
    19:00 +7°C° 0.3 mm 5 mps 722 mmHg 67%
    20:00 +7°C° 0.1 mm 5 mps 722 mmHg 69%
    21:00 +7°C° 0.1 mm 5 mps 723 mmHg 70%
    22:00 +6°C° 0.1 mm 5 mps 723 mmHg 71%
    23:00 +6°C° 0.1 mm 4 mps 723 mmHg 73%

    25 October, Thursday

    Time Temperature Precipitation Wind Pressure Humidity
    00:00 +6°C° 0.1 mm 4 mps 723 mmHg 76%
    01:00 +7°C° 0.1 mm 3 mps 723 mmHg 78%
    02:00 +7°C° 0.2 mm 3 mps 723 mmHg 80%
    03:00 +8°C° 0.2 mm 3 mps 723 mmHg 82%
    04:00 +8°C° 0.2 mm 3 mps 723 mmHg 84%
    05:00 +8°C° 0.1 mm 3 mps 723 mmHg 85%
    06:00 +8°C° 0.1 mm 3 mps 723 mmHg 86%
    07:00 +8°C° 0.1 mm 3 mps 723 mmHg 87%
    08:00 +10°C° 0 mm 4 mps 723 mmHg 81%
    09:00 +11°C° 0 mm 4 mps 724 mmHg 74%
    10:00 +13°C° 0 mm 5 mps 724 mmHg 68%
    11:00 +13°C° 0 mm 5 mps 723 mmHg 65%
    12:00 +14°C° 0 mm 5 mps 723 mmHg 62%
    13:00 +15°C° 0 mm 6 mps 722 mmHg 58%
    14:00 +14°C° 0 mm 5 mps 722 mmHg 60%
    15:00 +14°C° 0 mm 4 mps 722 mmHg 62%
    16:00 +13°C° 0 mm 3 mps 722 mmHg 64%
    17:00 +12°C° 0 mm 3 mps 722 mmHg 69%
    18:00 +12°C° 0 mm 2 mps 722 mmHg 74%
    19:00 +10°C° 0 mm 2 mps 722 mmHg 79%
    20:00 +9°C° 0 mm 2 mps 722 mmHg 81%
    21:00 +9°C° 0 mm 2 mps 722 mmHg 83%
    22:00 +9°C° 0 mm 2 mps 722 mmHg 85%
    23:00 +9°C° 0 mm 1 mps 722 mmHg 86%

    26 October, Friday

    Time Temperature Precipitation Wind Pressure Humidity
    00:00 +9°C° 0 mm 1 mps 722 mmHg 88%
    01:00 +8°C° 0 mm 1 mps 722 mmHg 89%
    02:00 +8°C° 0 mm 1 mps 722 mmHg 90%
    03:00 +8°C° 0 mm 1 mps 721 mmHg 90%
    04:00 +8°C° 0 mm 1 mps 721 mmHg 91%
    05:00 +7°C° 0 mm 1 mps 721 mmHg 91%
    06:00 +7°C° 0 mm 1 mps 721 mmHg 91%
    07:00 +7°C° 0 mm 1 mps 721 mmHg 91%
    08:00 +8°C° 0 mm 2 mps 720 mmHg 83%
    09:00 +10°C° 0 mm 2 mps 720 mmHg 75%
    10:00 +12°C° 0 mm 3 mps 720 mmHg 67%
    11:00 +13°C° 0 mm 3 mps 720 mmHg 64%
    12:00 +14°C° 0 mm 3 mps 719 mmHg 61%
    13:00 +16°C° 0 mm 3 mps 718 mmHg 58%
    14:00 +16°C° 0 mm 3 mps 718 mmHg 61%
    15:00 +16°C° 0 mm 3 mps 717 mmHg 65%
    16:00 +15°C° 0 mm 2 mps 717 mmHg 69%
    17:00 +13°C° 0 mm 3 mps 717 mmHg 73%
    18:00 +12°C° 0 mm 3 mps 716 mmHg 78%
    19:00 +11°C° 0 mm 3 mps 716 mmHg 83%
    20:00 +11°C° 0 mm 3 mps 716 mmHg 84%
    21:00 +11°C° 0 mm 3 mps 716 mmHg 85%
    22:00 +10°C° 0 mm 3 mps 716 mmHg 85%
    23:00 +10°C° 0 mm 3 mps 716 mmHg 86%
    Show more